Year,Month,Day,Hour,Minute,Value (Times are PST for temperature in C)
2020,09,30,00,00,12.20
2020,09,30,00,01,12.10
2020,09,30,00,02,12.10
2020,09,30,00,03,12.10
2020,09,30,00,04,12.10
2020,09,30,00,05,12.10
2020,09,30,00,06,12.10
2020,09,30,00,07,12.10
2020,09,30,00,08,12.10
2020,09,30,00,09,12.00
2020,09,30,00,10,12.10
2020,09,30,00,11,12.00
2020,09,30,00,12,12.00
2020,09,30,00,13,12.00
2020,09,30,00,14,11.90
2020,09,30,00,15,11.90
2020,09,30,00,16,11.90
2020,09,30,00,17,11.90
2020,09,30,00,18,11.80
2020,09,30,00,19,11.80
2020,09,30,00,20,11.80
2020,09,30,00,21,11.80
2020,09,30,00,22,11.80
2020,09,30,00,23,11.80
2020,09,30,00,24,11.80
2020,09,30,00,25,11.80
2020,09,30,00,26,11.80
2020,09,30,00,27,11.70
2020,09,30,00,28,11.70
2020,09,30,00,29,11.70
2020,09,30,00,30,11.70
2020,09,30,00,31,11.70
2020,09,30,00,32,11.70
2020,09,30,00,33,11.70
2020,09,30,00,34,11.70
2020,09,30,00,35,11.70
2020,09,30,00,36,11.70
2020,09,30,00,37,11.60
2020,09,30,00,38,11.60
2020,09,30,00,39,11.60
2020,09,30,00,40,11.60
2020,09,30,00,41,11.60
2020,09,30,00,42,11.60
2020,09,30,00,43,11.60
2020,09,30,00,44,11.60
2020,09,30,00,45,11.60
2020,09,30,00,46,11.60
2020,09,30,00,47,11.60
2020,09,30,00,48,11.60
2020,09,30,00,49,11.50
2020,09,30,00,50,11.50
2020,09,30,00,51,11.50
2020,09,30,00,52,11.50
2020,09,30,00,53,11.50
2020,09,30,00,54,11.50
2020,09,30,00,55,11.50
2020,09,30,00,56,11.40
2020,09,30,00,57,11.40
2020,09,30,00,58,11.40
2020,09,30,00,59,11.40
2020,09,30,01,00,11.40
2020,09,30,01,01,11.40
2020,09,30,01,02,11.40
2020,09,30,01,03,11.40
2020,09,30,01,04,11.40
2020,09,30,01,05,11.40
2020,09,30,01,06,11.40
2020,09,30,01,07,11.40
2020,09,30,01,08,11.30
2020,09,30,01,09,11.30
2020,09,30,01,10,11.30
2020,09,30,01,11,11.30
2020,09,30,01,12,11.30
2020,09,30,01,13,11.30
2020,09,30,01,14,11.30
2020,09,30,01,15,11.30
2020,09,30,01,16,11.30
2020,09,30,01,17,11.20
2020,09,30,01,18,11.20
2020,09,30,01,19,11.20
2020,09,30,01,20,11.20
2020,09,30,01,21,11.20
2020,09,30,01,22,11.20
2020,09,30,01,23,11.20
2020,09,30,01,24,11.20
2020,09,30,01,25,11.20
2020,09,30,01,26,11.20
2020,09,30,01,27,11.20
2020,09,30,01,28,11.10
2020,09,30,01,29,11.10
2020,09,30,01,30,11.10
2020,09,30,01,31,11.10
2020,09,30,01,32,11.10
2020,09,30,01,33,11.10
2020,09,30,01,34,11.10
2020,09,30,01,35,11.10
2020,09,30,01,36,11.10
2020,09,30,01,37,11.10
2020,09,30,01,38,11.10
2020,09,30,01,39,11.10
2020,09,30,01,40,11.10
2020,09,30,01,41,11.10
2020,09,30,01,42,11.10
2020,09,30,01,43,11.00
2020,09,30,01,44,11.00
2020,09,30,01,45,11.00
2020,09,30,01,46,11.00
2020,09,30,01,47,11.00
2020,09,30,01,48,11.00
2020,09,30,01,49,11.00
2020,09,30,01,50,11.00
2020,09,30,01,51,11.00
2020,09,30,01,52,10.90
2020,09,30,01,53,10.90
2020,09,30,01,54,10.90
2020,09,30,01,55,10.90
2020,09,30,01,56,10.90
2020,09,30,01,57,10.90
2020,09,30,01,58,10.90
2020,09,30,01,59,10.90
2020,09,30,02,00,10.90
2020,09,30,02,01,10.90
2020,09,30,02,02,10.90
2020,09,30,02,03,10.90
2020,09,30,02,04,10.90
2020,09,30,02,05,10.80
2020,09,30,02,06,10.80
2020,09,30,02,07,10.80
2020,09,30,02,08,10.80
2020,09,30,02,09,10.80
2020,09,30,02,10,10.80
2020,09,30,02,11,10.80
2020,09,30,02,12,10.80
2020,09,30,02,13,10.80
2020,09,30,02,14,10.70
2020,09,30,02,15,10.70
2020,09,30,02,16,10.70
2020,09,30,02,17,10.70
2020,09,30,02,18,10.70
2020,09,30,02,19,10.70
2020,09,30,02,20,10.70
2020,09,30,02,21,10.70
2020,09,30,02,22,10.70
2020,09,30,02,23,10.70
2020,09,30,02,24,10.70
2020,09,30,02,25,10.70
2020,09,30,02,26,10.70
2020,09,30,02,27,10.70
2020,09,30,02,28,10.70
2020,09,30,02,29,10.70
2020,09,30,02,30,10.70
2020,09,30,02,31,10.70
2020,09,30,02,32,10.70
2020,09,30,02,33,10.70
2020,09,30,02,34,10.70
2020,09,30,02,35,10.70
2020,09,30,02,36,10.70
2020,09,30,02,37,10.70
2020,09,30,02,38,10.70
2020,09,30,02,39,10.60
2020,09,30,02,40,10.60
2020,09,30,02,41,10.60
2020,09,30,02,42,10.60
2020,09,30,02,43,10.60
2020,09,30,02,44,10.60
2020,09,30,02,45,10.60
2020,09,30,02,46,10.60
2020,09,30,02,47,10.60
2020,09,30,02,48,10.60
2020,09,30,02,49,10.60
2020,09,30,02,50,10.60
2020,09,30,02,51,10.60
2020,09,30,02,52,10.50
2020,09,30,02,53,10.50
2020,09,30,02,54,10.50
2020,09,30,02,55,10.50
2020,09,30,02,56,10.50
2020,09,30,02,57,10.50
2020,09,30,02,58,10.50
2020,09,30,02,59,10.50
2020,09,30,03,00,10.50
2020,09,30,03,01,10.50
2020,09,30,03,02,10.40
2020,09,30,03,03,10.40
2020,09,30,03,04,10.40
2020,09,30,03,05,10.40
2020,09,30,03,06,10.40
2020,09,30,03,07,10.40
2020,09,30,03,08,10.40
2020,09,30,03,09,10.40
2020,09,30,03,10,10.40
2020,09,30,03,11,10.40
2020,09,30,03,12,10.40
2020,09,30,03,13,10.40
2020,09,30,03,14,10.40
2020,09,30,03,15,10.40
2020,09,30,03,16,10.40
2020,09,30,03,17,10.40
2020,09,30,03,18,10.40
2020,09,30,03,19,10.40
2020,09,30,03,20,10.40
2020,09,30,03,21,10.40
2020,09,30,03,22,10.40
2020,09,30,03,23,10.40
2020,09,30,03,24,10.40
2020,09,30,03,25,10.30
2020,09,30,03,26,10.30
2020,09,30,03,27,10.30
2020,09,30,03,28,10.30
2020,09,30,03,29,10.40
2020,09,30,03,30,10.30
2020,09,30,03,31,10.30
2020,09,30,03,32,10.30
2020,09,30,03,33,10.30
2020,09,30,03,34,10.30
2020,09,30,03,35,10.30
2020,09,30,03,36,10.30
2020,09,30,03,37,10.30
2020,09,30,03,38,10.30
2020,09,30,03,39,10.30
2020,09,30,03,40,10.30
2020,09,30,03,41,10.30
2020,09,30,03,42,10.30
2020,09,30,03,43,10.30
2020,09,30,03,44,10.30
2020,09,30,03,45,10.30
2020,09,30,03,46,10.20
2020,09,30,03,47,10.20
2020,09,30,03,48,10.20
2020,09,30,03,49,10.20
2020,09,30,03,50,10.20
2020,09,30,03,51,10.20
2020,09,30,03,52,10.20
2020,09,30,03,53,10.20
2020,09,30,03,54,10.20
2020,09,30,03,55,10.20
2020,09,30,03,56,10.20
2020,09,30,03,57,10.20
2020,09,30,03,58,10.20
2020,09,30,03,59,10.20
2020,09,30,04,00,10.20
2020,09,30,04,01,10.20
2020,09,30,04,02,10.20
2020,09,30,04,03,10.10
2020,09,30,04,04,10.10
2020,09,30,04,05,10.10
2020,09,30,04,06,10.10
2020,09,30,04,07,10.10
2020,09,30,04,08,10.10
2020,09,30,04,09,10.10
2020,09,30,04,10,10.10
2020,09,30,04,11,10.10
2020,09,30,04,12,10.10
2020,09,30,04,13,10.10
2020,09,30,04,14,10.10
2020,09,30,04,15,10.10
2020,09,30,04,16,10.10
2020,09,30,04,17,10.10
2020,09,30,04,18,10.10
2020,09,30,04,19,10.10
2020,09,30,04,20,10.10
2020,09,30,04,21,10.10
2020,09,30,04,22,10.00
2020,09,30,04,23,10.00
2020,09,30,04,24,10.00
2020,09,30,04,25,10.00
2020,09,30,04,26,10.00
2020,09,30,04,27,10.00
2020,09,30,04,28,10.00
2020,09,30,04,29,10.00
2020,09,30,04,30,10.00
2020,09,30,04,31,10.00
2020,09,30,04,32,10.00
2020,09,30,04,33,10.00
2020,09,30,04,34,10.00
2020,09,30,04,35,10.00
2020,09,30,04,36,9.90
2020,09,30,04,37,9.90
2020,09,30,04,38,9.90
2020,09,30,04,39,9.90
2020,09,30,04,40,9.90
2020,09,30,04,41,9.90
2020,09,30,04,42,9.90
2020,09,30,04,43,9.90
2020,09,30,04,44,9.90
2020,09,30,04,45,9.90
2020,09,30,04,46,9.90
2020,09,30,04,47,10.00
2020,09,30,04,48,10.00
2020,09,30,04,49,10.00
2020,09,30,04,50,10.00
2020,09,30,04,51,10.00
2020,09,30,04,52,9.90
2020,09,30,04,53,9.90
2020,09,30,04,54,9.90
2020,09,30,04,55,9.90
2020,09,30,04,56,9.90
2020,09,30,04,57,9.90
2020,09,30,04,58,9.90
2020,09,30,04,59,9.90
2020,09,30,05,00,9.90
2020,09,30,05,01,9.80
2020,09,30,05,02,9.80
2020,09,30,05,03,9.80
2020,09,30,05,04,9.80
2020,09,30,05,05,9.80
2020,09,30,05,06,9.80
2020,09,30,05,07,9.80
2020,09,30,05,08,9.80
2020,09,30,05,09,9.80
2020,09,30,05,10,9.80
2020,09,30,05,11,9.80
2020,09,30,05,12,9.80
2020,09,30,05,13,9.80
2020,09,30,05,14,9.80
2020,09,30,05,15,9.80
2020,09,30,05,16,9.70
2020,09,30,05,17,9.70
2020,09,30,05,18,9.70
2020,09,30,05,19,9.70
2020,09,30,05,20,9.70
2020,09,30,05,21,9.60
2020,09,30,05,22,9.60
2020,09,30,05,23,9.60
2020,09,30,05,24,9.60
2020,09,30,05,25,9.60
2020,09,30,05,26,9.60
2020,09,30,05,27,9.60
2020,09,30,05,28,9.70
2020,09,30,05,29,9.70
2020,09,30,05,30,9.70
2020,09,30,05,31,9.70
2020,09,30,05,32,9.70
2020,09,30,05,33,9.70
2020,09,30,05,34,9.70
2020,09,30,05,35,9.60
2020,09,30,05,36,9.60
2020,09,30,05,37,9.60
2020,09,30,05,38,9.60
2020,09,30,05,39,9.60
2020,09,30,05,40,9.60
2020,09,30,05,41,9.60
2020,09,30,05,42,9.60
2020,09,30,05,43,9.60
2020,09,30,05,44,9.60
2020,09,30,05,45,9.60
2020,09,30,05,46,9.60
2020,09,30,05,47,9.60
2020,09,30,05,48,9.60
2020,09,30,05,49,9.60
2020,09,30,05,50,9.60
2020,09,30,05,51,9.60
2020,09,30,05,52,9.50
2020,09,30,05,53,9.50
2020,09,30,05,54,9.50
2020,09,30,05,55,9.40
2020,09,30,05,56,9.40
2020,09,30,05,57,9.40
2020,09,30,05,58,9.40
2020,09,30,05,59,9.40
2020,09,30,06,00,9.40
2020,09,30,06,01,9.40
2020,09,30,06,02,9.40
2020,09,30,06,03,9.40
2020,09,30,06,04,9.40
2020,09,30,06,05,9.40
2020,09,30,06,06,9.40
2020,09,30,06,07,9.40
2020,09,30,06,08,9.40
2020,09,30,06,09,9.40
2020,09,30,06,10,9.30
2020,09,30,06,11,9.30
2020,09,30,06,12,9.30
2020,09,30,06,13,9.30
2020,09,30,06,14,9.30
2020,09,30,06,15,9.30
2020,09,30,06,16,9.30
2020,09,30,06,17,9.30
2020,09,30,06,18,9.30
2020,09,30,06,19,9.30
2020,09,30,06,20,9.30
2020,09,30,06,21,9.30
2020,09,30,06,22,9.30
2020,09,30,06,23,9.30
2020,09,30,06,24,9.30
2020,09,30,06,25,9.30
2020,09,30,06,26,9.30
2020,09,30,06,27,9.30
2020,09,30,06,28,9.30
2020,09,30,06,29,9.30
2020,09,30,06,30,9.30
2020,09,30,06,31,9.30
2020,09,30,06,32,9.30
2020,09,30,06,33,9.30
2020,09,30,06,34,9.30
2020,09,30,06,35,9.30
2020,09,30,06,36,9.30
2020,09,30,06,37,9.30
2020,09,30,06,38,9.30
2020,09,30,06,39,9.30
2020,09,30,06,40,9.30
2020,09,30,06,41,9.30
2020,09,30,06,42,9.30
2020,09,30,06,43,9.30
2020,09,30,06,44,9.30
2020,09,30,06,45,9.30
2020,09,30,06,46,9.30
2020,09,30,06,47,9.30
2020,09,30,06,48,9.30
2020,09,30,06,49,9.30
2020,09,30,06,50,9.30
2020,09,30,06,51,9.20
2020,09,30,06,52,9.20
2020,09,30,06,53,9.20
2020,09,30,06,54,9.20
2020,09,30,06,55,9.20
2020,09,30,06,56,9.20
2020,09,30,06,57,9.20
2020,09,30,06,58,9.20
2020,09,30,06,59,9.20
2020,09,30,07,00,9.10
2020,09,30,07,01,9.10
2020,09,30,07,02,9.10
2020,09,30,07,03,9.10
2020,09,30,07,04,9.10
2020,09,30,07,05,9.10
2020,09,30,07,06,9.10
2020,09,30,07,07,9.10
2020,09,30,07,08,9.10
2020,09,30,07,09,9.10
2020,09,30,07,10,9.10
2020,09,30,07,11,9.10
2020,09,30,07,12,9.10
2020,09,30,07,13,9.10
2020,09,30,08,03,9.20
2020,09,30,08,04,9.20
2020,09,30,08,05,9.20
2020,09,30,08,06,9.20
2020,09,30,08,07,9.20
2020,09,30,08,08,9.20
2020,09,30,08,09,9.20
2020,09,30,08,10,9.20
2020,09,30,08,11,9.20
2020,09,30,08,12,9.30
2020,09,30,08,13,9.30
2020,09,30,08,14,9.30
2020,09,30,08,15,9.30
2020,09,30,08,16,9.30
2020,09,30,08,17,9.30
2020,09,30,08,18,9.30
2020,09,30,08,19,9.30
2020,09,30,08,20,9.40
2020,09,30,08,21,9.40
2020,09,30,08,22,9.40
2020,09,30,08,23,9.40
2020,09,30,08,24,9.40
2020,09,30,08,25,9.50
2020,09,30,08,26,9.50
2020,09,30,08,27,9.50
2020,09,30,08,28,9.50
2020,09,30,08,29,9.60
2020,09,30,08,30,9.60
2020,09,30,08,31,9.60
2020,09,30,08,32,9.60
2020,09,30,08,33,9.60
2020,09,30,08,34,9.60
2020,09,30,08,35,9.60
2020,09,30,08,36,9.60
2020,09,30,08,37,9.70
2020,09,30,08,38,9.70
2020,09,30,08,39,9.70
2020,09,30,08,40,9.70
2020,09,30,08,41,9.80
2020,09,30,08,42,9.80
2020,09,30,08,43,9.80
2020,09,30,08,44,9.80
2020,09,30,08,45,9.90
2020,09,30,08,46,9.90
2020,09,30,08,47,9.90
2020,09,30,08,48,9.90
2020,09,30,08,49,10.00
2020,09,30,08,50,10.00
2020,09,30,08,51,10.00
2020,09,30,08,52,10.10
2020,09,30,08,53,10.10
2020,09,30,08,54,10.10
2020,09,30,08,55,10.10
2020,09,30,08,56,10.20
2020,09,30,08,57,10.20
2020,09,30,08,58,10.20
2020,09,30,08,59,10.30
2020,09,30,09,00,10.30
2020,09,30,09,01,10.30
2020,09,30,09,02,10.40
2020,09,30,09,03,10.40
2020,09,30,09,04,10.40
2020,09,30,09,05,10.50
2020,09,30,09,06,10.50
2020,09,30,09,07,10.60
2020,09,30,09,08,10.70
2020,09,30,09,09,10.80
2020,09,30,09,10,10.80
2020,09,30,09,11,10.90
2020,09,30,09,12,11.00
2020,09,30,09,13,11.00
2020,09,30,09,14,11.10
2020,09,30,09,15,11.10
2020,09,30,09,16,11.20
2020,09,30,09,17,11.20
2020,09,30,09,18,11.30
2020,09,30,09,19,11.30
2020,09,30,09,20,11.40
2020,09,30,09,21,11.40
2020,09,30,09,22,11.40
2020,09,30,09,23,11.50
2020,09,30,09,24,11.50
2020,09,30,09,25,11.60
2020,09,30,09,26,11.60
2020,09,30,09,27,11.60
2020,09,30,09,28,11.60
2020,09,30,09,29,11.70
2020,09,30,09,30,11.80
2020,09,30,09,31,11.90
2020,09,30,09,32,12.00
2020,09,30,09,33,12.00
2020,09,30,09,34,12.10
2020,09,30,09,35,12.10
2020,09,30,09,36,12.20
2020,09,30,09,37,12.30
2020,09,30,09,38,12.40
2020,09,30,09,39,12.50
2020,09,30,09,40,12.50
2020,09,30,09,41,12.60
2020,09,30,09,42,12.60
2020,09,30,09,43,12.60
2020,09,30,09,44,12.70
2020,09,30,09,45,12.70
2020,09,30,09,46,12.80
2020,09,30,09,47,12.80
2020,09,30,09,48,12.90
2020,09,30,09,49,13.00
2020,09,30,09,50,13.00
2020,09,30,09,51,13.10
2020,09,30,09,52,13.10
2020,09,30,09,53,13.10
2020,09,30,09,54,13.10
2020,09,30,09,55,13.10
2020,09,30,09,56,13.20
2020,09,30,09,57,13.20
2020,09,30,09,58,13.30
2020,09,30,09,59,13.30
2020,09,30,10,00,13.30
2020,09,30,10,01,13.40
2020,09,30,10,02,13.50
2020,09,30,10,03,13.60
2020,09,30,10,04,13.70
2020,09,30,10,05,13.70
2020,09,30,10,06,13.80
2020,09,30,10,07,13.90
2020,09,30,10,08,13.90
2020,09,30,10,09,14.00
2020,09,30,10,10,14.10
2020,09,30,10,11,14.10
2020,09,30,10,12,14.20
2020,09,30,10,13,14.20
2020,09,30,10,14,14.30
2020,09,30,10,15,14.40
2020,09,30,10,16,14.40
2020,09,30,10,17,14.40
2020,09,30,10,18,14.50
2020,09,30,10,19,14.60
2020,09,30,10,20,14.70
2020,09,30,10,21,14.80
2020,09,30,10,22,14.90
2020,09,30,10,23,15.00
2020,09,30,10,24,15.00
2020,09,30,10,25,15.00
2020,09,30,10,26,15.20
2020,09,30,10,27,15.30
2020,09,30,10,28,15.40
2020,09,30,10,29,15.50
2020,09,30,10,30,15.70
2020,09,30,10,31,15.80
2020,09,30,10,32,15.90
2020,09,30,10,33,16.00
2020,09,30,10,34,16.00
2020,09,30,10,35,16.00
2020,09,30,10,36,16.00
2020,09,30,10,37,16.00
2020,09,30,10,38,16.10
2020,09,30,10,39,16.10
2020,09,30,10,40,16.20
2020,09,30,10,41,16.30
2020,09,30,10,42,16.30
2020,09,30,10,43,16.40
2020,09,30,10,44,16.40
2020,09,30,10,45,16.60
2020,09,30,10,46,16.70
2020,09,30,10,47,16.70
2020,09,30,10,48,16.80
2020,09,30,10,49,16.90
2020,09,30,10,50,16.90
2020,09,30,10,51,17.00
2020,09,30,10,52,17.10
2020,09,30,10,53,17.30
2020,09,30,10,54,17.40
2020,09,30,10,55,17.50
2020,09,30,10,56,17.60
2020,09,30,10,57,17.60
2020,09,30,10,58,17.60
2020,09,30,10,59,17.60
2020,09,30,11,00,17.60
2020,09,30,11,01,17.60
2020,09,30,11,02,17.70
2020,09,30,11,03,17.70
2020,09,30,11,04,17.80
2020,09,30,11,05,17.90
2020,09,30,11,06,17.90
2020,09,30,11,07,18.00
2020,09,30,11,08,18.10
2020,09,30,11,09,18.20
2020,09,30,11,10,18.30
2020,09,30,11,11,18.40
2020,09,30,11,12,18.50
2020,09,30,11,13,18.70
2020,09,30,11,14,18.80
2020,09,30,11,15,18.90
2020,09,30,11,16,19.00
2020,09,30,11,17,19.10
2020,09,30,11,18,19.20
2020,09,30,11,19,19.30
2020,09,30,11,20,19.40
2020,09,30,11,21,19.50
2020,09,30,11,22,19.60
2020,09,30,11,23,19.70
2020,09,30,11,24,19.80
2020,09,30,11,25,19.90
2020,09,30,11,26,19.90
2020,09,30,11,27,20.00
2020,09,30,11,28,20.10
2020,09,30,11,29,20.20
2020,09,30,11,30,20.30
2020,09,30,11,31,20.40
2020,09,30,11,32,20.40
2020,09,30,11,33,20.50
2020,09,30,11,34,20.60
2020,09,30,11,35,20.70
2020,09,30,11,36,20.80
2020,09,30,11,37,20.80
2020,09,30,11,38,20.90
2020,09,30,11,39,20.90
2020,09,30,11,40,21.00
2020,09,30,11,41,21.10
2020,09,30,11,42,21.20
2020,09,30,11,43,21.20
2020,09,30,11,44,21.20
2020,09,30,11,45,21.20
2020,09,30,11,46,21.30
2020,09,30,11,47,21.30
2020,09,30,11,48,21.20
2020,09,30,11,49,21.20
2020,09,30,11,50,21.20
2020,09,30,11,51,21.20
2020,09,30,11,52,21.20
2020,09,30,11,53,21.20
2020,09,30,11,54,21.20
2020,09,30,11,55,21.30
2020,09,30,11,56,21.30
2020,09,30,11,57,21.30
2020,09,30,11,58,21.40
2020,09,30,11,59,21.40
2020,09,30,12,00,21.50
2020,09,30,12,01,21.50
2020,09,30,12,02,21.60
2020,09,30,12,03,21.60
2020,09,30,12,04,21.60
2020,09,30,12,05,21.60
2020,09,30,12,06,21.60
2020,09,30,12,07,21.60
2020,09,30,12,08,21.60
2020,09,30,12,09,21.60
2020,09,30,12,10,21.60
2020,09,30,12,11,21.70
2020,09,30,12,12,21.80
2020,09,30,12,13,21.80
2020,09,30,12,14,21.90
2020,09,30,12,15,22.00
2020,09,30,12,16,22.10
2020,09,30,12,17,22.20
2020,09,30,12,18,22.30
2020,09,30,12,19,22.40
2020,09,30,12,20,22.50
2020,09,30,12,21,22.60
2020,09,30,12,22,22.70
2020,09,30,12,23,22.70
2020,09,30,12,24,22.80
2020,09,30,12,25,22.80
2020,09,30,12,26,22.90
2020,09,30,12,27,22.90
2020,09,30,12,28,22.90
2020,09,30,12,29,23.00
2020,09,30,12,30,23.00
2020,09,30,12,31,23.10
2020,09,30,12,32,23.20
2020,09,30,12,33,23.30
2020,09,30,12,34,23.30
2020,09,30,12,35,23.30
2020,09,30,12,36,23.50
2020,09,30,12,37,23.60
2020,09,30,12,38,23.60
2020,09,30,12,39,23.60
2020,09,30,12,40,23.70
2020,09,30,12,41,23.70
2020,09,30,12,42,23.80
2020,09,30,12,43,23.80
2020,09,30,12,44,23.80
2020,09,30,12,45,23.90
2020,09,30,12,46,23.90
2020,09,30,12,47,23.90
2020,09,30,12,48,23.80
2020,09,30,12,49,23.80
2020,09,30,12,50,23.80
2020,09,30,12,51,23.90
2020,09,30,12,52,24.00
2020,09,30,12,53,24.00
2020,09,30,12,54,24.00
2020,09,30,12,55,24.10
2020,09,30,12,56,24.10
2020,09,30,12,57,24.10
2020,09,30,12,58,24.20
2020,09,30,12,59,24.10
2020,09,30,13,00,24.10
2020,09,30,13,01,24.10
2020,09,30,13,02,24.10
2020,09,30,13,03,24.10
2020,09,30,13,04,24.00
2020,09,30,13,05,23.90
2020,09,30,13,06,23.90
2020,09,30,13,07,24.00
2020,09,30,13,08,24.10
2020,09,30,13,09,24.10
2020,09,30,13,10,24.20
2020,09,30,13,11,24.30
2020,09,30,13,12,24.40
2020,09,30,13,13,24.40
2020,09,30,13,14,24.40
2020,09,30,13,15,24.40
2020,09,30,13,16,24.40
2020,09,30,13,17,24.50
2020,09,30,13,18,24.50
2020,09,30,13,19,24.60
2020,09,30,13,20,24.70
2020,09,30,13,21,24.80
2020,09,30,13,22,24.90
2020,09,30,13,23,24.90
2020,09,30,13,24,24.90
2020,09,30,13,25,24.80
2020,09,30,13,26,24.80
2020,09,30,13,27,24.80
2020,09,30,13,28,24.80
2020,09,30,13,29,24.90
2020,09,30,13,30,24.90
2020,09,30,13,31,25.00
2020,09,30,13,32,25.00
2020,09,30,13,33,25.10
2020,09,30,13,34,25.10
2020,09,30,13,35,25.20
2020,09,30,13,36,25.20
2020,09,30,13,37,25.20
2020,09,30,13,38,25.30
2020,09,30,13,39,25.40
2020,09,30,13,40,25.40
2020,09,30,13,41,25.30
2020,09,30,13,42,25.30
2020,09,30,13,43,25.30
2020,09,30,13,44,25.30
2020,09,30,13,45,25.20
2020,09,30,13,46,25.20
2020,09,30,13,47,25.20
2020,09,30,13,48,25.20
2020,09,30,13,49,25.20
2020,09,30,13,50,25.20
2020,09,30,13,51,25.20
2020,09,30,13,52,25.30
2020,09,30,13,53,25.30
2020,09,30,13,54,25.30
2020,09,30,13,55,25.20
2020,09,30,13,56,25.20
2020,09,30,13,57,25.10
2020,09,30,13,58,25.10
2020,09,30,13,59,25.00
2020,09,30,14,00,25.00
2020,09,30,14,01,25.00
2020,09,30,14,02,24.90
2020,09,30,14,03,24.90
2020,09,30,14,04,24.90
2020,09,30,14,05,24.90
2020,09,30,14,06,25.00
2020,09,30,14,07,25.00
2020,09,30,14,08,25.10
2020,09,30,14,09,25.20
2020,09,30,14,10,25.20
2020,09,30,14,11,25.20
2020,09,30,14,12,25.20
2020,09,30,14,13,25.30
2020,09,30,14,14,25.30
2020,09,30,14,15,25.30
2020,09,30,14,16,25.30
2020,09,30,14,17,25.30
2020,09,30,14,18,25.30
2020,09,30,14,19,25.40
2020,09,30,14,20,25.50
2020,09,30,14,21,25.60
2020,09,30,14,22,25.70
2020,09,30,14,23,25.70
2020,09,30,14,24,25.70
2020,09,30,14,25,25.60
2020,09,30,14,26,25.60
2020,09,30,14,27,25.70
2020,09,30,14,28,25.70
2020,09,30,14,29,25.70
2020,09,30,14,30,25.70
2020,09,30,14,31,25.70
2020,09,30,14,32,25.70
2020,09,30,14,33,25.70
2020,09,30,14,34,25.70
2020,09,30,14,35,25.60
2020,09,30,14,36,25.60
2020,09,30,14,37,25.60
2020,09,30,14,38,25.50
2020,09,30,14,39,25.40
2020,09,30,14,40,25.40
2020,09,30,14,41,25.30
2020,09,30,14,42,25.20
2020,09,30,14,43,25.20
2020,09,30,14,44,25.20
2020,09,30,14,45,25.20
2020,09,30,14,46,25.10
2020,09,30,14,47,25.10
2020,09,30,14,48,25.10
2020,09,30,14,49,25.10
2020,09,30,14,50,25.20
2020,09,30,14,51,25.20
2020,09,30,14,52,25.20
2020,09,30,14,53,25.20
2020,09,30,14,54,25.20
2020,09,30,14,55,25.30
2020,09,30,14,56,25.30
2020,09,30,14,57,25.30
2020,09,30,14,58,25.40
2020,09,30,14,59,25.40
2020,09,30,15,00,25.50
2020,09,30,15,01,25.50
2020,09,30,15,02,25.60
2020,09,30,15,03,25.60
2020,09,30,15,04,25.50
2020,09,30,15,05,25.40
2020,09,30,15,06,25.40
2020,09,30,15,07,25.40
2020,09,30,15,08,25.40
2020,09,30,15,09,25.40
2020,09,30,15,10,25.40
2020,09,30,15,11,25.30
2020,09,30,15,12,25.30
2020,09,30,15,13,25.30
2020,09,30,15,14,25.30
2020,09,30,15,15,25.30
2020,09,30,15,16,25.30
2020,09,30,15,17,25.30
2020,09,30,15,18,25.30
2020,09,30,15,19,25.40
2020,09,30,15,20,25.40
2020,09,30,15,21,25.40
2020,09,30,15,22,25.40
2020,09,30,15,23,25.30
2020,09,30,15,24,25.30
2020,09,30,15,25,25.30
2020,09,30,15,26,25.20
2020,09,30,15,27,25.20
2020,09,30,15,28,25.10
2020,09,30,15,29,25.10
2020,09,30,15,30,25.10
2020,09,30,15,31,25.10
2020,09,30,15,32,25.10
2020,09,30,15,33,25.10
2020,09,30,15,34,25.10
2020,09,30,15,35,25.10
2020,09,30,15,36,25.10
2020,09,30,15,37,25.10
2020,09,30,15,38,25.10
2020,09,30,15,39,25.10
2020,09,30,15,40,25.10
2020,09,30,15,41,25.10
2020,09,30,15,42,25.10
2020,09,30,15,43,25.10
2020,09,30,15,44,25.10
2020,09,30,15,45,25.10
2020,09,30,15,46,25.10
2020,09,30,15,47,25.10
2020,09,30,15,48,25.10
2020,09,30,15,49,25.10
2020,09,30,15,50,25.00
2020,09,30,15,51,25.00
2020,09,30,15,52,24.90
2020,09,30,15,53,24.90
2020,09,30,15,54,24.90
2020,09,30,15,55,24.80
2020,09,30,15,56,24.80
2020,09,30,15,57,24.80
2020,09,30,15,58,24.80
2020,09,30,15,59,24.80
2020,09,30,16,00,24.80
2020,09,30,16,01,24.70
2020,09,30,16,02,24.70
2020,09,30,16,03,24.70
2020,09,30,16,04,24.70
2020,09,30,16,05,24.70
2020,09,30,16,06,24.70
2020,09,30,16,07,24.70
2020,09,30,16,08,24.70
2020,09,30,16,09,24.60
2020,09,30,16,10,24.60
2020,09,30,16,11,24.60
2020,09,30,16,12,24.60
2020,09,30,16,13,24.60
2020,09,30,16,14,24.60
2020,09,30,16,15,24.50
2020,09,30,16,16,24.50
2020,09,30,16,17,24.50
2020,09,30,16,18,24.40
2020,09,30,16,19,24.40
2020,09,30,16,20,24.40
2020,09,30,16,21,24.40
2020,09,30,16,22,24.40
2020,09,30,16,23,24.40
2020,09,30,16,24,24.40
2020,09,30,16,25,24.40
2020,09,30,16,26,24.40
2020,09,30,16,27,24.40
2020,09,30,16,28,24.40
2020,09,30,16,29,24.30
2020,09,30,16,30,24.30
2020,09,30,16,31,24.30
2020,09,30,16,32,24.30
2020,09,30,16,33,24.30
2020,09,30,16,34,24.30
2020,09,30,16,35,24.30
2020,09,30,16,36,24.30
2020,09,30,16,37,24.30
2020,09,30,16,38,24.30
2020,09,30,16,39,24.30
2020,09,30,16,40,24.30
2020,09,30,16,41,24.40
2020,09,30,16,42,24.40
2020,09,30,16,43,24.30
2020,09,30,16,44,24.30
2020,09,30,16,45,24.30
2020,09,30,16,46,24.30
2020,09,30,16,47,24.30
2020,09,30,16,48,24.30
2020,09,30,16,49,24.30
2020,09,30,16,50,24.20
2020,09,30,16,51,24.20
2020,09,30,16,52,24.20
2020,09,30,16,53,24.20
2020,09,30,16,54,24.20
2020,09,30,16,55,24.20
2020,09,30,16,56,24.20
2020,09,30,16,57,24.20
2020,09,30,16,58,24.20
2020,09,30,16,59,24.10
2020,09,30,17,00,24.10
2020,09,30,17,01,24.10
2020,09,30,17,02,24.10
2020,09,30,17,03,24.00
2020,09,30,17,04,24.00
2020,09,30,17,05,24.00
2020,09,30,17,06,23.90
2020,09,30,17,07,23.90
2020,09,30,17,08,23.90
2020,09,30,17,09,23.90
2020,09,30,17,10,23.90
2020,09,30,17,11,23.90
2020,09,30,17,12,23.90
2020,09,30,17,13,23.90
2020,09,30,17,14,23.90
2020,09,30,17,15,23.90
2020,09,30,17,16,23.90
2020,09,30,17,17,23.90
2020,09,30,17,18,23.90
2020,09,30,17,19,23.80
2020,09,30,17,20,23.80
2020,09,30,17,21,23.80
2020,09,30,17,22,23.80
2020,09,30,17,23,23.80
2020,09,30,17,24,23.70
2020,09,30,17,25,23.70
2020,09,30,17,26,23.70
2020,09,30,17,27,23.70
2020,09,30,17,28,23.60
2020,09,30,17,29,23.60
2020,09,30,17,30,23.60
2020,09,30,17,31,23.50
2020,09,30,17,32,23.50
2020,09,30,17,33,23.50
2020,09,30,17,34,23.50
2020,09,30,17,35,23.50
2020,09,30,17,36,23.40
2020,09,30,17,37,23.40
2020,09,30,17,38,23.40
2020,09,30,17,39,23.40
2020,09,30,17,40,23.40
2020,09,30,17,41,23.30
2020,09,30,17,42,23.30
2020,09,30,17,43,23.30
2020,09,30,17,44,23.30
2020,09,30,17,45,23.30
2020,09,30,17,46,23.20
2020,09,30,17,47,23.20
2020,09,30,17,48,23.20
2020,09,30,17,49,23.20
2020,09,30,17,50,23.10
2020,09,30,17,51,23.10
2020,09,30,17,52,23.10
2020,09,30,17,53,23.00
2020,09,30,17,54,23.00
2020,09,30,17,55,22.90
2020,09,30,17,56,22.80
2020,09,30,17,57,22.80
2020,09,30,17,58,22.70
2020,09,30,17,59,22.60
2020,09,30,18,00,22.60
2020,09,30,18,01,22.50
2020,09,30,18,02,22.50
2020,09,30,18,03,22.40
2020,09,30,18,04,22.40
2020,09,30,18,05,22.40
2020,09,30,18,06,22.20
2020,09,30,18,07,22.20
2020,09,30,18,08,22.10
2020,09,30,18,09,22.00
2020,09,30,18,10,21.90
2020,09,30,18,11,21.90
2020,09,30,18,12,21.80
2020,09,30,18,13,21.80
2020,09,30,18,14,21.70
2020,09,30,18,15,21.60
2020,09,30,18,16,21.60
2020,09,30,18,17,21.50